Flag for Canada Weather past 2 weeks in Dieppe, New Brunswick, Canada

Now
75 °F

Passing clouds.


Feels Like: 78 °F
Forecast: N/A
Wind: 21 mph from Southwest

Location: Moncton

Current Time: Jul 2, 2015 at 7:28:15 PM

Latest Report: Jul 2, 2015 at 6:00 PM


Visibility: 15 mi

Pressure: 29.73 "Hg

Humidity: 50%

Dew point: 55 °F

Location of DieppeLocation

Historic Weather in Dieppe — Graph

°F

Dieppe temperature yesterday

Maximum temperature yesterday: 75 °F (at 12:00 PM)
Minimum temperature yesterday: 52 °F (at 5:00 AM)
Average temperature yesterday: 65 °F

Past Weeks' High & Low Weather Summary

 TemperatureHumidityPressure
High77 °F (Jul 2, 5:00 PM)100% (Jun 20, 12:00 AM)30.18 "Hg (Jun 20, 12:00 AM)
Low43 °F (Jun 21, 6:00 AM)33% (Jun 17, 5:00 PM)29.64 "Hg (Jun 24, 7:00 AM)
Average59 °F76%29.92 "Hg
* Reported Jun 17 5:00 PM — Jul 2 5:00 PM, Dieppe, Weather by CustomWeather, © 2015

Note: Actual official high and low records may vary slightly from our data, if they occured in-between our weather recording intervals... More about our weather records

Advertising

Dieppe weather history for previous 24 hours

 ConditionsComfort  
Time TempWeatherWind HumidityBarometerVisibility
5:00 PM
Thu, Jul 2
77 °FPassing clouds.21 mph47%29.72 "Hg15 mi
4:00 PM75 °FPartly sunny.16 mph54%29.72 "Hg15 mi
3:00 PM73 °FPartly sunny.17 mph61%29.72 "Hg15 mi
2:00 PM75 °FBroken clouds.17 mph57%29.72 "Hg15 mi
1:00 PM75 °FPartly sunny.18 mph61%29.71 "Hg15 mi
12:00 PM72 °FPartly sunny.17 mph69%29.71 "Hg15 mi
11:00 AM72 °FPartly sunny.13 mph73%29.71 "Hg15 mi
10:00 AM68 °FOvercast.13 mph78%29.72 "Hg15 mi
9:00 AM66 °FOvercast.10 mph88%29.71 "Hg15 mi
8:00 AM64 °FOvercast.8 mph88%29.71 "Hg12 mi
7:00 AM64 °FSprinkles. Mostly cloudy.13 mph88%29.70 "Hg7 mi
6:00 AM64 °FLow clouds.8 mph88%29.71 "Hg15 mi
5:00 AM64 °FLow clouds.12 mph88%29.71 "Hg15 mi
3:00 AM64 °FOvercast.14 mph88%29.73 "Hg15 mi
2:00 AM63 °FOvercast.13 mph88%29.73 "Hg15 mi
1:00 AM63 °FPartly cloudy.15 mph88%29.74 "Hg15 mi
12:00 AM63 °FPassing clouds.9 mph88%29.75 "Hg15 mi
11:00 PM
Wed, Jul 1
64 °FPartly cloudy.13 mph78%29.78 "Hg15 mi
10:00 PM66 °FPartly sunny.8 mph73%29.80 "Hg15 mi
9:00 PM66 °FPartly sunny.15 mph73%29.79 "Hg15 mi
8:00 PM72 °FBroken clouds.12 mph61%29.80 "Hg15 mi
7:00 PM73 °FBroken clouds.10 mph61%29.81 "Hg15 mi
Weather by CustomWeather, © 2015

See weather overviewHow to use our weather pages